Terminal Aerodrome Forecast
Issued by NWS

Home | Current Version | Previous Version | Text Only | Print | Product List | Glossary On
Versions: 1 2 3 4 5 6 7 8 9 10 11 12 13 14 15
000
FTAK31 PANC 191747
TAFAIL
TAF
PAIL 191747Z 1918/2018 35006KT P6SM VCSH BKN070 OVC090
     FM200300 VRB05KT P6SM BKN100=

USA.gov is the U.S. government's official web portal to all federal, state and local government web resources and services.